Regional Weather Roundup
Issued by NWS Charleston, SC

Current Version | Previous Version | Graphics & Text | Print | Product List | Glossary On
Versions: 1 2 3 4 5 6 7 8 9 10 11 12 13 14 15 16 17 18 19 20 21 22 23 24 25 26 27 28 29 30 31 32 33 34 35 36 37 38 39 40 41 42 43 44 45 46 47 48 49 50
000
ASUS42 KCHS 230110
RWRCHS
REGIONAL WEATHER ROUNDUP
NATIONAL WEATHER SERVICE CHARLESTON SC
900 PM EDT FRI AUG 22 2014

NOTE: "FAIR" INDICATES FEW OR NO CLOUDS BELOW 12,000 FEET WITH NO
SIGNIFICANT WEATHER AND/OR OBSTRUCTIONS TO VISIBILITY.

NOT ALL STATIONS ARE QUALITY CONTROLLED BY THE NATIONAL
WEATHER SERVICE. USE DATA WITH CAUTION...ESPECIALLY
DEWPOINT OBSERVATIONS.

SCZ027-030-031-034>040-042>050-230200-
...SOUTH CAROLINA...

CITY           SKY/WX    TMP DP  RH WIND       PRES   REMARKS
N CHARLESTON   PTCLDY    87  78  74 S9        29.95S HX 100
WATERFRONT PRK   N/A     88 N/A N/A SW7         N/A
FORT JOHNSON   NOT AVBL
MOUNT PLEASANT FAIR      86  81  84 CALM      29.95S HX 102
JOHNS ISLAND   CLEAR     86  82  89 CALM      29.96S HX 105
PINOPOLIS        N/A     90  77  66 CALM      29.88R HX 102
MONCKS CORNER    N/A     84  82  94 SW3       29.95S HX 101
SUMMERVILLE    FAIR      84  79  84 CALM      29.96S HX  96
BEAUFORT MCAS  CLEAR     87  78  74 VRB5      29.96R HX 100
BEAUFORT ARPT  FAIR      86  79  79 SW3       29.95S HX  99
HILTON HEAD IS CLEAR     86  81  84 S6        29.97S HX 102
GEORGETOWN     NOT AVBL
WALTERBORO     CLEAR     88  70  55 CALM      29.96S HX  92
ORANGEBURG     PTCLDY    82  75  79 CALM      29.95S
BARNWELL       FAIR      86  73  66 CALM      29.96S HX  93
AIKEN          FAIR      84  72  65 W3        30.00S
MANNING        FAIR      82  82 100 CALM      29.95S HX  97
KINGSTREE      NOT AVBL
COLUMBIA       PTCLDY    88  72  58 CALM      29.94S HX  94
SUMTER         CLEAR     85  73  66 CALM      29.94S HX  92
FLORENCE       CLEAR     84  75  74 CALM      29.94R HX  92
MYRTLE BEACH   CLEAR     88  79  74 S7        29.95S HX 102
N MYRTLE BEACH PTCLDY    86  77  74 SW10      29.94S HX  97

$$

GAZ063-065-086>088-099>101-113>116-118-119-134-136>141-150-230200-
...GEORGIA...

CITY           SKY/WX    TMP DP  RH WIND       PRES   REMARKS
SAVANNAH ARPT  PTCLDY    87  75  67 S8        29.96S HX  96
HUNTER AAF     CLEAR     87  78  75 S3        29.95S HX  99
FORT STEWART   CLEAR     85  74  68 CALM      29.95S HX  93
STATESBORO     NOT AVBL
SYLVANIA       CLEAR     83  76  78 CALM      29.97S HX  91
CLAXTON        FAIR      86  81  84 CALM      29.96F HX 102
THOMSON        CLEAR     84  79  86 CALM      30.01S HX  95
AUGUSTA-BUSH   PTCLDY    82  72  71 S3        29.95S
AUGUSTA-DANIEL CLEAR     91  69  48 SW3       29.97S HX  96
SWAINSBORO     FAIR      88  73  62 CALM      29.98S HX  96
VIDALIA          N/A     86  73  66 CALM      29.98S HX  93
ALMA           PTCLDY    82  74  76 CALM      29.97F
WAYCROSS       CLEAR     88  77  69 CALM      29.97S HX 101
JESUP            N/A     86  82  89 CALM      29.97S HX 105
BRUNSWICK      CLEAR     88  73  62 S5        29.98S HX  96
SAINT SIMONS   CLEAR     86  76  71 S6        29.97S HX  96

$$

SCZ027-028-034-036>038-045-046-048>050-GAZ119-141-230200-
...LAKE AND SUPPLEMENTAL COASTAL OBSERVATIONS...

STATION/POSITION TIME  TEMP    WIND        PRES    WAVE   SWELL
                       AIR SEA DIR/SP/G            HT/PER HT/PER/DIR
                 (UTC) (F)     (DEG/KT/KT) (MB)    (FT/S) (FT/S/D)
UPR LAKE MARION  NOT AVBL
WINYAH BAY       0000   88     200/  6     1014.0S
LAKE MURRAY      0000   89        CALM     1013.2S
ACE BASIN NERRS  0000   88        CALM     1014.0S
FORT PULASKI     0100   86     190/  4/  7 1014.9F
SAPELO ISLAND    0000   87     160/  5     1016.0R

$$

ANZ835-935-AMZ111-154-330-350-352-354-374-450-454-472-230200-
...C-MAN AND BUOY OBSERVATIONS...

STATION/POSITION TIME  TEMP    WIND        PRES    WAVE   SWELL
                       AIR SEA DIR/SP/G            HT/PER HT/PER/DIR
                 (UTC) (F)     (DEG/KT/KT) (MB)    (FT/S) (FT/S/D)
FOLLY BEACH CMAN 0000   87     200/ 10/ 12 1014.6R
BUOY 41004       0100   85 85  200/ 10/ 12 1013.9R   2/ 9   2/ 9
BUOY 41008       0100   86 86  180/ 10/ 10 1014.8R   1/10
5E ST. MARYS GA  0100      84                N/A     1/10
FRYING PAN BUOY  NOT AVBL
BUOY 41025       0100   80      10/  6/ 10 1013.5R   2/ 8   2/ 50/ 8
CAPE LOOKOUT NC  0000   84     240/  8/ 10 1013.3F
BUOY 41002       0017   82 83  250/ 12/ 14 1015.5R   2/ 5   2/160/ 9
BUOY 41010       0100   85 86  190/  6/  6 1016.5R   2/ 7   2/140/ 7
BUOY 41012       NOT AVBL
ST AUGUSTINE FL  0100   82     180/  5/  5 1016.3F
CAPERS NEARSHORE 0000   87     210/ 12/ 14   N/A
FRIPP NEARSHORE  NOT AVBL


$$



USA.gov is the U.S. government's official web portal to all federal, state and local government web resources and services.